SCP
0 1 0 0 0 -0 -0 0 0 0 0 0 -0 0 0 0 -0 -0 -0 -0 -0 -0 0 0 0 0 0 0 0 0 -0 -0
0 1 1 1 0 0 0 0 0 0 0 0 0 0 0 0 0 0 0 0 0 0 0 0 0 0 0 0 0 -0 -0 -0
0 0 1 1 1 1 0 0 0 0 0 0 0 0 0 0 0 0 0 0 0 0 0 0 0 0 0 0 0 0 -0 -0
0 0 1 1 1 1 0 0 0 0 0 0 0 0 0 0 0 0 0 0 0 0 0 0 0 0 0 0 0 0 0 -0
1 1 1 1 1 1 1 1 0 0 0 0 0 0 0 0 0 0 0 0 0 0 0 0 0 0 0 0 -0 -0 0 -0
1 0 0 1 1 1 1 1 1 1 1 1 1 0 0 0 0 0 0 0 0 0 0 0 0 0 0 0 -0 -0 0 0
1 1 0 0 0 0 0 1 1 1 1 1 1 1 0 0 0 0 0 0 0 0 0 0 0 0 0 0 -0 -0 0 0
2 1 0 0 0 0 0 1 1 1 1 1 1 1 0 0 0 0 0 0 0 0 0 0 0 0 0 0 0 0 0 0
1 2 1 0 0 -0 0 1 1 1 1 1 1 1 1 0 0 0 0 0 0 0 0 0 0 0 0 0 0 0 0 0
0 4 5 2 0 0 1 1 1 0 1 1 1 1 1 0 0 0 0 0 0 0 0 0 0 0 0 0 0 0 0 0
0 1 2 1 1 1 1 1 1 0 0 0 0 1 1 1 0 0 0 0 0 0 0 0 0 0 0 0 0 0 0 0
0 0 0 0 0 0 1 2 3 1 0 0 0 0 1 1 0 0 0 1 0 0 0 0 0 0 0 1 1 1 0 1
0 -0 -0 0 0 0 3 2 3 3 1 1 0 1 1 1 1 0 1 1 0 1 1 0 0 0 1 1 1 0 1 1
0 0 0 0 0 0 1 3 2 4 4 2 1 1 2 1 1 1 1 1 1 1 1 1 1 1 1 1 1 0 1 1
0 0 0 0 0 2 3 4 4 4 3 4 3 2 2 2 2 2 2 1 2 1 1 1 1 1 1 1 2 1 1 2
0 0 0 0 0 0 0 5 4 4 3 3 4 3 3 3 2 2 2 3 2 4 2 1 2 2 2 2 3 2 3 3
0 0 0 0 0 0 0 0 3 3 3 4 3 2 1 3 4 3 2 3 5 4 3 3 4 5 3 3 4 4 3 3
0 0 0 0 0 0 0 0 0 0 1 3 2 2 2 4 4 2 3 3 3 5 5 5 5 4 5 3 4 5 4 3
0 0 0 0 0 0 0 0 0 1 1 0 0 1 2 2 1 2 0 0 1 2 3 4 7 7 5 4 6 4 3 2
Wind_Speed_500mb
45 47 48 49 47 45 43 40 39 38 37 32 28 28 28 27 26 24 22 21 20 18 16 14 13 10 8 6 4 2 3 6
39 46 46 45 44 43 40 39 38 37 37 35 29 25 25 23 22 22 21 19 17 15 13 11 10 8 6 5 4 2 1 2
20 35 40 42 42 41 40 38 39 39 39 36 33 28 24 22 21 20 19 18 17 15 12 9 7 6 5 2 1 1 1 2
16 19 31 41 42 40 38 36 38 40 42 41 37 31 26 25 23 21 19 17 16 15 12 10 8 6 4 3 0 3 4 3
19 17 24 41 44 45 43 38 35 38 41 43 40 34 29 26 26 24 24 22 19 15 13 10 7 6 4 3 0 5 7 3
28 20 17 38 43 42 40 38 37 39 44 46 44 41 38 33 30 30 28 27 24 21 17 14 11 9 7 5 5 7 13 13
43 32 26 25 42 43 40 40 41 42 49 53 52 50 46 41 37 35 34 32 29 27 25 22 19 16 11 9 12 4 8 8
55 47 39 26 22 33 40 39 42 44 47 53 55 54 49 46 43 41 41 41 40 36 33 31 27 21 17 20 17 14 10 7
33 55 48 32 30 12 16 22 26 39 48 52 57 59 59 56 51 48 46 45 42 40 37 35 32 24 21 22 21 18 18 16
7 51 64 54 37 30 25 21 39 47 35 53 57 61 61 62 60 55 53 48 44 38 38 42 38 35 29 26 24 28 28 22
9 14 37 61 48 23 42 49 45 47 49 37 48 55 61 61 62 62 61 58 53 48 39 39 39 40 36 32 26 32 33 33
14 9 25 39 54 42 50 47 50 49 43 45 41 39 48 54 62 68 69 69 63 54 46 41 40 33 39 42 40 36 34 35
16 11 11 36 34 43 47 41 64 50 48 54 51 51 49 47 55 71 76 78 71 66 57 54 53 52 51 49 45 43 42 42
14 13 16 18 11 39 49 50 67 67 59 56 58 56 62 61 59 61 74 83 77 73 74 70 66 64 63 61 56 51 55 49
29 25 28 28 19 16 44 45 52 48 61 71 70 71 65 77 74 70 68 71 77 76 76 83 79 75 69 68 62 57 50 50
40 35 37 32 31 32 33 50 54 55 50 61 74 77 78 76 76 76 80 73 77 82 78 75 75 78 78 78 70 58 55 61
48 44 44 40 37 36 24 29 43 48 55 60 65 65 76 80 78 85 88 85 79 84 79 73 71 75 76 72 72 62 58 63
49 29 20 13 9 13 24 29 33 49 58 51 60 70 76 76 76 87 77 88 94 84 75 75 78 80 86 81 77 64 28 40
39 28 20 13 4 9 22 22 35 44 59 64 59 58 60 72 73 80 91 98 101 84 78 77 87 91 85 86 78 79 78 49
Wind_Direction_500mb
171 166 165 163 164 164 163 165 164 164 163 162 158 160 162 162 160 157 153 150 145 144 142 141 138 134 132 130 129 134 129 138
171 170 169 168 168 168 168 170 173 173 173 171 170 170 171 171 169 166 163 158 155 154 151 149 144 140 146 147 149 195 220 179
144 165 173 174 173 173 173 176 179 180 181 182 180 180 181 182 180 177 177 173 170 168 167 167 163 167 165 165 169 242 310 318
183 181 180 182 179 180 179 182 185 188 188 189 190 190 190 190 191 190 192 192 188 185 185 184 186 193 189 187 247 341 338 5
195 210 198 193 187 185 185 186 190 192 196 196 197 200 202 204 202 201 199 200 205 205 203 207 210 210 231 242 274 47 18 12
204 217 210 201 194 193 192 192 193 196 198 200 203 207 209 210 211 210 210 210 209 209 212 215 222 226 228 254 201 59 62 95
194 214 216 197 196 197 200 202 202 201 201 204 207 210 214 215 217 217 218 216 217 216 212 214 222 226 233 202 182 136 108 83
201 198 216 194 176 204 208 210 214 213 210 211 214 217 220 223 222 223 220 221 218 220 221 218 218 226 230 210 210 184 174 182
197 199 196 186 199 172 219 212 223 236 228 222 223 221 221 223 227 227 225 225 225 230 229 230 229 224 211 216 221 204 204 211
100 184 194 190 211 203 240 227 236 243 251 238 231 231 225 226 225 225 230 229 227 228 231 235 231 225 220 231 235 237 234 224
274 226 201 206 203 242 233 244 239 241 249 247 233 235 238 229 228 224 229 231 228 226 224 231 228 226 226 228 233 221 214 217
242 226 210 206 213 221 235 214 231 235 241 250 243 245 243 239 229 226 226 232 235 230 230 234 232 231 231 233 232 224 228 235
228 175 184 202 224 231 214 217 227 230 229 240 247 248 249 245 241 232 229 230 231 230 229 228 231 229 233 234 238 239 235 241
217 180 157 169 228 224 220 224 228 232 233 229 235 246 250 248 244 241 236 237 235 230 223 221 228 230 232 238 241 243 236 233
246 230 177 191 233 225 232 237 247 241 237 234 227 234 241 245 245 244 246 248 245 239 231 229 229 228 233 238 242 248 236 236
245 240 236 242 248 270 226 231 239 242 248 242 240 234 239 245 246 250 249 250 251 245 244 240 242 241 242 242 247 247 239 241
228 238 249 254 258 260 273 247 240 252 256 259 253 250 244 245 244 250 251 250 249 245 243 240 246 248 246 239 231 235 237 240
220 203 184 212 252 281 292 286 267 249 250 258 258 257 254 251 247 244 251 262 257 253 251 244 240 242 239 239 236 229 226 230
137 148 156 152 146 310 299 279 283 280 267 258 264 268 269 264 257 275 246 253 261 260 263 259 247 241 243 245 245 235 234 250
Wind_Speed_850mb
45 47 48 49 47 45 43 40 39 38 37 32 28 28 28 27 26 24 22 21 20 18 16 14 13 10 8 6 4 2 3 6
39 46 46 45 44 43 40 39 38 37 37 35 29 25 25 23 22 22 21 19 17 15 13 11 10 8 6 5 4 2 1 2
20 35 40 42 42 41 40 38 39 39 39 36 33 28 24 22 21 20 19 18 17 15 12 9 7 6 5 2 1 1 1 2
16 19 31 41 42 40 38 36 38 40 42 41 37 31 26 25 23 21 19 17 16 15 12 10 8 6 4 3 0 3 4 3
19 17 24 41 44 45 43 38 35 38 41 43 40 34 29 26 26 24 24 22 19 15 13 10 7 6 4 3 0 5 7 3
28 20 17 38 43 42 40 38 37 39 44 46 44 41 38 33 30 30 28 27 24 21 17 14 11 9 7 5 5 7 13 13
43 32 26 25 42 43 40 40 41 42 49 53 52 50 46 41 37 35 34 32 29 27 25 22 19 16 11 9 12 4 8 8
55 47 39 26 22 33 40 39 42 44 47 53 55 54 49 46 43 41 41 41 40 36 33 31 27 21 17 20 17 14 10 7
33 55 48 32 30 12 16 22 26 39 48 52 57 59 59 56 51 48 46 45 42 40 37 35 32 24 21 22 21 18 18 16
7 51 64 54 37 30 25 21 39 47 35 53 57 61 61 62 60 55 53 48 44 38 38 42 38 35 29 26 24 28 28 22
9 14 37 61 48 23 42 49 45 47 49 37 48 55 61 61 62 62 61 58 53 48 39 39 39 40 36 32 26 32 33 33
14 9 25 39 54 42 50 47 50 49 43 45 41 39 48 54 62 68 69 69 63 54 46 41 40 33 39 42 40 36 34 35
16 11 11 36 34 43 47 41 64 50 48 54 51 51 49 47 55 71 76 78 71 66 57 54 53 52 51 49 45 43 42 42
14 13 16 18 11 39 49 50 67 67 59 56 58 56 62 61 59 61 74 83 77 73 74 70 66 64 63 61 56 51 55 49
29 25 28 28 19 16 44 45 52 48 61 71 70 71 65 77 74 70 68 71 77 76 76 83 79 75 69 68 62 57 50 50
40 35 37 32 31 32 33 50 54 55 50 61 74 77 78 76 76 76 80 73 77 82 78 75 75 78 78 78 70 58 55 61
48 44 44 40 37 36 24 29 43 48 55 60 65 65 76 80 78 85 88 85 79 84 79 73 71 75 76 72 72 62 58 63
49 29 20 13 9 13 24 29 33 49 58 51 60 70 76 76 76 87 77 88 94 84 75 75 78 80 86 81 77 64 28 40
39 28 20 13 4 9 22 22 35 44 59 64 59 58 60 72 73 80 91 98 101 84 78 77 87 91 85 86 78 79 78 49
Wind_Direction_850mb
171 166 165 163 164 164 163 165 164 164 163 162 158 160 162 162 160 157 153 150 145 144 142 141 138 134 132 130 129 134 129 138
171 170 169 168 168 168 168 170 173 173 173 171 170 170 171 171 169 166 163 158 155 154 151 149 144 140 146 147 149 195 220 179
144 165 173 174 173 173 173 176 179 180 181 182 180 180 181 182 180 177 177 173 170 168 167 167 163 167 165 165 169 242 310 318
183 181 180 182 179 180 179 182 185 188 188 189 190 190 190 190 191 190 192 192 188 185 185 184 186 193 189 187 247 341 338 5
195 210 198 193 187 185 185 186 190 192 196 196 197 200 202 204 202 201 199 200 205 205 203 207 210 210 231 242 274 47 18 12
204 217 210 201 194 193 192 192 193 196 198 200 203 207 209 210 211 210 210 210 209 209 212 215 222 226 228 254 201 59 62 95
194 214 216 197 196 197 200 202 202 201 201 204 207 210 214 215 217 217 218 216 217 216 212 214 222 226 233 202 182 136 108 83
201 198 216 194 176 204 208 210 214 213 210 211 214 217 220 223 222 223 220 221 218 220 221 218 218 226 230 210 210 184 174 182
197 199 196 186 199 172 219 212 223 236 228 222 223 221 221 223 227 227 225 225 225 230 229 230 229 224 211 216 221 204 204 211
100 184 194 190 211 203 240 227 236 243 251 238 231 231 225 226 225 225 230 229 227 228 231 235 231 225 220 231 235 237 234 224
274 226 201 206 203 242 233 244 239 241 249 247 233 235 238 229 228 224 229 231 228 226 224 231 228 226 226 228 233 221 214 217
242 226 210 206 213 221 235 214 231 235 241 250 243 245 243 239 229 226 226 232 235 230 230 234 232 231 231 233 232 224 228 235
228 175 184 202 224 231 214 217 227 230 229 240 247 248 249 245 241 232 229 230 231 230 229 228 231 229 233 234 238 239 235 241
217 180 157 169 228 224 220 224 228 232 233 229 235 246 250 248 244 241 236 237 235 230 223 221 228 230 232 238 241 243 236 233
246 230 177 191 233 225 232 237 247 241 237 234 227 234 241 245 245 244 246 248 245 239 231 229 229 228 233 238 242 248 236 236
245 240 236 242 248 270 226 231 239 242 248 242 240 234 239 245 246 250 249 250 251 245 244 240 242 241 242 242 247 247 239 241
228 238 249 254 258 260 273 247 240 252 256 259 253 250 244 245 244 250 251 250 249 245 243 240 246 248 246 239 231 235 237 240
220 203 184 212 252 281 292 286 267 249 250 258 258 257 254 251 247 244 251 262 257 253 251 244 240 242 239 239 236 229 226 230
137 148 156 152 146 310 299 279 283 280 267 258 264 268 269 264 257 275 246 253 261 260 263 259 247 241 243 245 245 235 234 250